Malaga, Spain

2:12 AM CEST on April 21, 2018 (GMT +0200)
Malaga

Weather History for LEMG - March, 2014

Change the Weather History Date:

Monday, March 24, 2014

  Actual Average Record
Temperature  
Mean Temperature 61 °F -  
Max Temperature 76 °F 68 °F 76 °F (2014)
Min Temperature 46 °F 50 °F 39 °F (2008)
Degree Days  
Heating Degree Days 4    
Growing Degree Days 11 (Base 50)    
Moisture  
Dew Point 43 °F    
Average Humidity 51    
Maximum Humidity 82    
Minimum Humidity 11    
Precipitation  
Precipitation 0.00 in 0.06 in - ()
Sea Level Pressure  
Sea Level Pressure 30.16 in    
Wind  
Wind Speed 7 mph ()    
Max Wind Speed 26 mph    
Max Gust Speed 39 mph    
Visibility 6.9 miles    
Events      
Averages and records for this station are not official NWS values.
T = Trace of Precipitation, MM = Missing Value Source: Averaged Metar Reports

Daily Weather History Graph

Daily Weather History Graph

Search for Another Location

Airport or City:

Astronomy

Mar. 24, 2014 Rise Set
Actual Time 7:15 AM CET 7:33 PM CET
Civil Twilight 6:50 AM CET 7:58 PM CET
Nautical Twilight 6:19 AM CET 8:29 PM CET
Astronomical Twilight 5:49 AM CET 9:00 PM CET
Moon 2:24 AM CET (3/24) 12:52 PM CET (3/24)
Length of Visible Light 13h 08m
Length of Day
12h 17m
Last Quarter, 46% of the Moon is Illuminated
Mar 24
Last Quarter
Mar 30
New
Apr 7
First Quarter
Apr 15
Full
Apr 22
Last Quarter

Hourly Weather History & Observations

Time (CET) Temp. Windchill Dew Point Humidity Pressure Visibility Wind Dir Wind Speed Gust Speed Precip Events Conditions
12:00 AM 58 °F - 51 °F 70% 30.17 in - East 5.8 mph - -  
12:00 AM 57.2 °F - 51.8 °F 82% 30.15 in - East 4.6 mph - N/A   Clear
12:30 AM 57.2 °F - 51.8 °F 82% 30.15 in - East 3.5 mph - N/A   Clear
1:00 AM 57 °F - 48 °F 63% 30.17 in 12 mi ENE 1.2 mph - -   Scattered Clouds
1:00 AM 55.4 °F - 50.0 °F 82% 30.15 in 6.2 mi Calm Calm - N/A   Partly Cloudy
1:30 AM 55.4 °F - 48.2 °F 77% 30.15 in 6.2 mi Variable 1.2 mph - N/A   Partly Cloudy
2:00 AM 54 °F - 42 °F 54% 30.18 in - WNW 1.2 mph - -  
2:00 AM 50.0 °F - 44.6 °F 82% 30.15 in 6.2 mi WNW 1.2 mph - N/A   Partly Cloudy
2:30 AM 48.2 °F - 41.0 °F 76% 30.15 in 6.2 mi WNW 1.2 mph - N/A   Partly Cloudy
3:00 AM 52 °F - 40 °F 52% 30.18 in - WNW 2.3 mph - -  
3:00 AM 50.0 °F - 41.0 °F 71% 30.15 in 6.2 mi WNW 1.2 mph - N/A   Partly Cloudy
3:30 AM 48.2 °F - 39.2 °F 71% 30.15 in 6.2 mi NW 2.3 mph - N/A   Partly Cloudy
4:00 AM 51 °F - 38 °F 51% 30.18 in 2 mi West 5.8 mph - -   Scattered Clouds
4:00 AM 48.2 °F - 39.2 °F 71% 30.15 in 6.2 mi WNW 4.6 mph - N/A   Partly Cloudy
4:30 AM 50.0 °F - 39.2 °F 66% 30.15 in 6.2 mi West 8.1 mph - N/A   Partly Cloudy
5:00 AM 51 °F - 38 °F 52% 30.18 in - West 11.5 mph - -  
5:00 AM 50.0 °F - 41.0 °F 71% 30.15 in 6.2 mi West 10.4 mph - N/A   Partly Cloudy
5:30 AM 48.2 °F - 37.4 °F 66% 30.15 in 6.2 mi WNW 10.4 mph - N/A   Partly Cloudy
6:00 AM 50 °F - 36 °F 49% 30.19 in - WNW 10.4 mph - -  
6:00 AM 46.4 °F 41.9 °F 37.4 °F 71% 30.18 in 6.2 mi WNW 9.2 mph - N/A   Partly Cloudy
6:30 AM 48.2 °F - 37.4 °F 66% 30.18 in 6.2 mi West 9.2 mph - N/A   Partly Cloudy
7:00 AM 49 °F - 37 °F 54% 30.20 in 19 mi WNW 8.1 mph - -   Scattered Clouds
7:00 AM 46.4 °F 42.4 °F 37.4 °F 71% 30.18 in 6.2 mi WNW 8.1 mph - N/A   Partly Cloudy
7:30 AM 46.4 °F 40.7 °F 39.2 °F 76% 30.18 in - WNW 12.7 mph - N/A   Clear
8:00 AM 50 °F - 39 °F 57% 30.21 in - WNW 11.5 mph - -  
8:00 AM 48.2 °F - 39.2 °F 71% 30.18 in - WNW 10.4 mph - N/A   Clear
8:30 AM 50.0 °F - 41.0 °F 71% 30.21 in - WNW 6.9 mph - N/A   Clear
9:00 AM 51 °F - 40 °F 55% 30.22 in - WNW 9.2 mph - -  
9:00 AM 53.6 °F - 42.8 °F 67% 30.21 in - WNW 8.1 mph - N/A   Clear
9:30 AM 57.2 °F - 44.6 °F 63% 30.21 in - WNW 8.1 mph - N/A   Clear
10:00 AM 62 °F - 47 °F 46% 30.21 in 25 mi West 9.2 mph - -   Clear
10:00 AM 59.0 °F - 46.4 °F 63% 30.21 in - West 9.2 mph - N/A   Clear
10:30 AM 62.6 °F - 46.4 °F 55% 30.18 in 6.2 mi WNW 3.5 mph - N/A   Partly Cloudy
11:00 AM 67 °F - 45 °F 34% 30.21 in - NW 1.2 mph - -  
11:00 AM 64.4 °F - 44.6 °F 49% 30.18 in 6.2 mi West 1.2 mph - N/A   Partly Cloudy
11:30 AM 64.4 °F - 46.4 °F 52% 30.18 in 6.2 mi SSE 3.5 mph - N/A   Partly Cloudy
12:00 PM 69 °F - 44 °F 28% 30.19 in - SSE 6.9 mph - -  
12:00 PM 64.4 °F - 46.4 °F 52% 30.18 in 6.2 mi SE 5.8 mph - N/A   Partly Cloudy
12:30 PM 66.2 °F - 44.6 °F 46% 30.18 in - SSE 8.1 mph - N/A   Clear
1:00 PM 70 °F - 48 °F 35% 30.17 in 25 mi South 10.4 mph - -  
1:00 PM 66.2 °F - 48.2 °F 52% 30.15 in - South 9.2 mph - N/A   Clear
1:30 PM 66.2 °F - 48.2 °F 52% 30.15 in - SSE 10.4 mph - N/A   Clear
2:00 PM 70 °F - 49 °F 36% 30.15 in - SSE 11.5 mph - -  
2:00 PM 66.2 °F - 48.2 °F 52% 30.12 in - SSE 10.4 mph - N/A   Clear
2:30 PM 66.2 °F - 50.0 °F 56% 30.12 in - SSE 11.5 mph - N/A   Clear
3:00 PM 71 °F - 50 °F 37% 30.12 in - South 11.5 mph - -  
3:00 PM 68.0 °F - 50.0 °F 52% 30.12 in - South 11.5 mph - N/A   Clear
3:30 PM 69.8 °F - 48.2 °F 46% 30.09 in - SSE 10.4 mph - N/A   Clear
4:00 PM 73 °F - 48 °F 30% 30.11 in 25 mi South 10.4 mph - -   Scattered Clouds
4:00 PM 69.8 °F - 48.2 °F 46% 30.09 in - South 9.2 mph - N/A   Clear
4:30 PM 71.6 °F - 44.6 °F 38% 30.09 in - South 5.8 mph - N/A   Clear
5:00 PM 75 °F - 48 °F 28% 30.10 in - SE 5.8 mph - -  
5:00 PM 71.6 °F - 44.6 °F 38% 30.09 in - SSE 5.8 mph - N/A   Clear
5:30 PM 75.2 °F - 32.0 °F 21% 30.09 in - NNW 15.0 mph - N/A   Clear
6:00 PM 75 °F - 31 °F 11% 30.12 in - NW 16.1 mph - -  
6:00 PM 73.4 °F - 32.0 °F 22% 30.09 in 6.2 mi NW 15.0 mph - N/A   Scattered Clouds
6:30 PM 71.6 °F - 35.6 °F 27% 30.12 in 6.2 mi NW 15.0 mph - N/A   Scattered Clouds
7:00 PM 71 °F - 36 °F 17% 30.14 in 25 mi NW 15.0 mph - -   Scattered Clouds
7:00 PM 69.8 °F - 37.4 °F 31% 30.12 in 6.2 mi NW 12.7 mph 24.2 mph N/A   Scattered Clouds
7:30 PM 68.0 °F - 37.4 °F 33% 30.12 in 6.2 mi NW 17.3 mph 32.2 mph N/A   Scattered Clouds
8:00 PM 69 °F - 37 °F 20% 30.15 in - WNW 12.7 mph - -  
8:00 PM 68.0 °F - 37.4 °F 33% 30.15 in 6.2 mi WNW 12.7 mph - N/A   Scattered Clouds
8:30 PM 66.2 °F - 37.4 °F 35% 30.15 in 6.2 mi WNW 9.2 mph - N/A   Partly Cloudy
9:00 PM 68 °F - 39 °F 23% 30.16 in - WNW 16.1 mph - -  
9:00 PM 64.4 °F - 39.2 °F 40% 30.15 in 6.2 mi WNW 13.8 mph - N/A   Partly Cloudy
9:30 PM 64.4 °F - 42.8 °F 45% 30.15 in 6.2 mi WNW 23.0 mph 34.5 mph N/A   Partly Cloudy
10:00 PM 65 °F - 45 °F 37% 30.19 in 16 mi WNW 26.5 mph - -   Scattered Clouds
10:00 PM 62.6 °F - 44.6 °F 52% 30.18 in 6.2 mi WNW 25.3 mph - N/A   Partly Cloudy
10:30 PM 62.6 °F - 46.4 °F 55% 30.18 in 6.2 mi WNW 25.3 mph 39.1 mph N/A   Partly Cloudy
11:00 PM 63 °F - 46 °F 42% 30.22 in - WNW 25.3 mph - -  
11:00 PM 60.8 °F - 46.4 °F 59% 30.21 in 6.2 mi WNW 25.3 mph - N/A   Partly Cloudy
11:30 PM 60.8 °F - 46.4 °F 59% 30.21 in 6.2 mi WNW 16.1 mph - N/A   Partly Cloudy